Showing default

GJZ 01, 62290

Orbit data source: Space-Track

GJZ 01, 62290 is a payload satellite owned by CASC (CN) in LEO that was launched on Thu, 12 Dec 2024 UTC via a CHANG ZHENG 2D/YZ-3 launch vehicle from the Jiuquan Satellite Launch Center, China (JSC). Payload-class satellites include a variety of spacecraft equipped with specific instruments for various scientific and technological missions. These include communications satellites like Starlink; space stations such as the ISS; scientific satellites like the Hubble; Earth observation satellites from companies like Planet Labs, Umbra, and HawkEye 360; GPS; miniature CubeSats for education and research; and military/defense satellites.

Loading next visibility...
Identifier
62290, 2024-238A
Orbit
LEO
Country
Flag of CNCN / PRC
Related business
Manufacturer
HITSAT
Mission
Operational Civil Communications
Bus & Motor
HARBFLAT, Unknown motor
Mass
~150 kg wet, ~150 kg dry
Launch date (UTC)
2024-12-12 (1 year ago)
Launch vehicle
CHANG ZHENG 2D/YZ-3
Launch site
Jiuquan Satellite Launch Center, China (JSC)
Object type
Payload
Rocket body
Debris
Shape & HBR
Box + 2 Pan, 1.5 m
Radar Cross Section
0.240 m², Large (>1 m²)

Expand to show TLE details & history
Last TLE update: 6 hours ago

TLE from 6 hours ago
0 GJZ 01
1 62290U 24238A   26126.24869612 -.00000034  00000-0  87864-4 0  9998
2 62290  59.9145  53.6002 0016357 199.1605 160.8789 13.75214955 69830
Epoch: 2026-05-06T05:58Z
TLE epoch observation values (Epoch: 2026-05-06T05:58:07.344Z)
Latitude
-0.00008°
Longitude
99.95765°
Altitude
993.769 km
Speed
7.35 km/s
True Right ascension
03h 34m 24s
True Declination
0° 00' 00"
Sunlit
Object was in daylight at epoch
Visualization orbit readout
Latitude
Unknown
Longitude
Unknown
Altitude
Unknown
Speed
Unknown
Apparent Right ascension
Unknown
Apparent Declination
Unknown
Sunlit
N/A
Visualization observer readout
Local Sidereal Time
19:36:17
Azimuth
Unknown
Elevation
Unknown
Doppler factor
Unknown
Orbital elements
Apogee altitude
992.212 km
Perigee altitude
968.14 km
Semi-major axis
7,358.313 km
Eccentricity
0.00164
Inclination
59.9145°
RAAN
53.6002°
Arg. of periapsis
199.1605°
True anomaly
160.94018°
Mean anomaly
160.8789°
Eccentric anomaly
160.90955°
Mean motion
3.43855 °/min
Orbital period
104.7 mins
BSTAR
0.000087864
Loading maneuver chart data...
Computing Atmospheric mass density...
Loading historical data...
Loading historical data...
Loading historical data...
Loading historical data...
Loading historical data...
Loading historical data...
Loading historical data...
Other satellites on launch #238 in the year 2024 (2024-12-12 UTC)

Documentation

Showing up to 5 results
|